Theta_e
323 323 326 328 330 326 328 331 329 332 338 331 339 339 343 345 355 358 349 344 352 352 349 349 349 349 349 347 347 348 346 344 343 345 348 348 347 345 342 339 343 345 345 346 346 344 342 341 341
324 325 325 326 325 331 328 329 330 328 328 328 332 335 338 345 351 351 350 349 351 352 348 348 348 346 345 342 341 339 339 349 342 342 349 346 347 346 343 338 342 342 344 343 343 342 342 340 334
324 326 324 329 327 326 329 329 327 327 327 328 331 333 339 343 347 350 350 345 352 352 348 348 347 346 344 342 341 344 340 350 343 338 346 344 345 346 345 341 342 341 344 340 340 339 336 331 332
324 325 322 320 325 325 326 325 325 325 326 329 329 339 344 345 346 348 345 342 350 351 349 349 352 349 348 346 345 345 343 347 343 340 347 346 345 345 345 343 339 340 340 340 339 337 334 330 330
323 322 324 326 325 323 322 324 324 324 324 325 325 348 348 346 346 346 345 341 347 351 350 350 345 347 351 347 340 341 341 345 344 342 342 346 346 346 346 344 337 339 339 338 339 337 334 331 330
321 319 322 326 325 322 321 321 322 323 323 323 326 334 347 348 345 342 340 340 345 348 350 352 349 346 348 347 342 344 344 342 345 342 337 340 345 344 344 345 341 336 339 338 341 338 334 330 329
327 323 325 325 324 324 324 322 323 323 323 323 323 330 337 340 348 344 341 340 344 346 349 350 349 347 346 346 342 344 345 344 345 343 341 337 343 344 342 343 344 337 340 339 338 340 337 330 330
323 321 324 323 325 326 324 323 323 324 325 322 322 323 334 333 345 346 346 342 344 347 349 349 348 346 347 346 339 342 345 343 345 343 340 337 345 344 344 342 343 341 337 340 336 338 340 333 330
322 321 323 325 324 325 322 323 324 323 324 323 323 322 329 333 336 342 345 346 345 346 346 347 347 345 344 345 346 347 345 343 343 343 342 340 337 341 343 341 341 342 340 338 335 335 339 336 330
322 324 326 323 321 321 321 322 322 322 321 321 320 320 322 321 323 331 339 343 346 345 345 345 345 345 343 337 340 343 344 345 344 343 341 339 334 333 339 342 339 341 341 341 336 333 334 333 331
324 323 324 324 323 323 323 322 322 321 322 322 321 320 319 319 319 318 318 331 342 347 345 344 344 344 343 342 342 343 342 338 336 337 333 331 332 331 341 344 342 341 340 339 339 333 329 330 337
323 323 323 324 324 324 324 323 321 320 320 319 319 319 319 317 317 318 318 319 319 330 347 345 344 343 342 342 343 343 344 342 339 337 335 339 340 335 338 342 344 342 340 338 338 336 331 330 335
323 323 323 322 322 322 322 322 321 319 318 318 318 320 320 317 316 319 319 321 323 323 329 347 346 344 341 342 342 344 344 343 341 341 340 341 340 339 342 342 341 339 340 339 339 340 337 337 335
321 321 321 320 320 320 321 321 320 319 318 319 319 318 316 316 317 319 323 324 325 326 326 327 345 345 342 342 343 343 344 343 343 342 342 343 342 340 341 341 340 338 338 340 340 340 338 337 333
322 322 320 320 320 320 320 320 320 319 317 318 317 316 315 318 320 320 323 324 325 326 327 328 327 336 343 342 343 343 343 344 343 342 342 343 342 340 339 340 340 338 340 339 339 338 338 336 334
322 321 322 321 320 319 319 319 319 317 317 317 317 314 314 318 319 322 323 325 326 326 326 326 328 328 328 342 342 340 341 342 342 341 340 340 341 339 339 337 339 339 339 337 338 337 336 333 333
321 322 323 322 320 319 318 318 318 318 318 317 315 314 314 317 319 322 324 324 324 325 325 325 326 327 327 328 329 340 334 332 337 339 341 341 340 339 339 338 338 339 337 337 337 336 335 334 333
324 321 322 321 321 319 319 318 317 317 317 317 316 315 315 318 319 321 321 321 321 324 323 324 325 326 326 327 328 327 329 332 335 340 339 339 339 338 338 337 337 337 336 335 336 334 335 334 334
320 321 320 319 318 318 319 318 318 317 317 316 316 315 316 317 317 319 319 319 320 319 319 319 320 323 326 327 327 329 327 338 341 339 339 339 335 327 334 337 337 337 336 333 334 330 332 333 330
319 319 319 318 319 318 317 317 316 316 316 316 316 315 315 312 310 312 314 315 314 313 313 315 318 320 326 326 327 329 330 329 332 339 339 336 331 330 337 337 337 336 335 333 336 334 331 330 330
319 318 317 317 316 316 316 317 316 314 318 317 312 311 311 310 308 307 307 308 312 310 312 309 316 320 323 326 326 327 330 323 330 340 338 335 330 333 330 332 335 335 336 336 334 333 331 331 330
318 317 316 315 315 316 314 317 314 312 312 315 308 306 303 303 303 303 303 303 304 305 309 309 309 313 320 323 325 325 327 326 321 332 340 334 334 328 326 328 332 335 335 335 333 332 331 330 330
315 313 313 313 312 311 312 313 312 311 312 313 306 303 302 301 301 301 301 303 303 303 303 305 308 307 311 320 325 325 326 329 332 329 338 336 334 329 327 329 333 335 334 333 332 331 330 330 328
311 311 311 311 311 312 312 312 311 311 311 306 304 301 301 301 300 302 302 302 302 302 302 302 303 306 307 314 322 325 324 326 332 337 336 335 331 328 328 333 333 333 334 330 332 331 331 331 329
307 307 310 312 314 314 310 310 310 309 307 306 306 305 305 304 304 303 304 302 302 302 302 302 303 303 306 310 319 323 324 326 331 334 335 334 332 328 326 328 332 330 332 332 332 332 330 328 327
306 307 308 314 312 310 308 310 311 307 306 305 306 306 305 304 305 305 305 304 304 304 304 304 303 303 305 311 316 322 324 325 330 333 333 328 326 328 328 327 327 330 330 333 330 329 327 326 326
306 306 306 306 307 308 308 308 308 310 304 303 303 303 303 304 305 304 303 304 304 304 305 305 304 304 303 311 313 319 323 325 330 329 329 324 323 323 324 325 323 331 328 329 328 328 326 323 321
305 306 309 305 312 313 310 308 311 312 308 305 304 304 305 305 305 305 304 304 304 304 304 305 305 304 305 311 313 317 323 325 329 327 324 324 323 323 323 322 323 327 326 328 327 326 325 323 325
306 305 306 307 310 314 313 308 309 308 305 304 303 304 303 303 304 302 303 303 303 304 304 305 305 303 302 312 314 317 321 326 327 326 326 324 323 321 321 322 325 325 325 327 326 325 325 324 323
303 303 303 305 303 309 311 310 307 304 303 301 300 301 302 302 302 301 302 302 302 303 304 304 302 302 304 312 314 316 321 321 326 325 325 325 322 321 321 320 321 324 325 326 325 325 324 323 322
Wind_Speed
3 5 11 2 4 5 3 4 4 6 4 3 2 2 6 3 4 2 7 11 18 21 24 21 19 18 16 13 14 12 10 8 9 9 9 9 8 7 7 7 8 8 9 11 12 12 11 10 10
4 6 1 2 4 3 5 1 6 3 1 4 4 1 5 2 4 6 8 11 22 22 25 22 19 17 16 15 14 12 11 10 8 8 10 8 7 6 6 7 8 9 9 9 9 10 10 10 11
10 8 3 3 3 1 2 3 3 4 4 4 4 3 4 3 4 7 4 12 20 19 21 20 19 16 14 13 13 12 13 14 10 9 9 7 7 6 5 6 7 7 7 8 7 9 9 10 11
5 6 4 3 3 5 6 2 5 5 6 3 3 6 5 9 4 10 14 16 18 19 16 17 17 14 13 12 11 11 11 14 11 10 12 9 8 9 7 6 6 7 6 6 5 7 8 9 10
2 3 3 2 4 1 3 4 6 5 5 1 3 3 4 6 18 15 15 21 17 20 16 16 16 14 14 11 12 12 13 13 12 11 10 9 10 9 9 8 7 9 6 5 5 6 6 7 9
4 3 3 0 4 1 5 5 5 5 5 6 6 4 3 11 16 15 17 21 22 21 22 20 18 18 19 15 13 13 13 12 13 12 12 13 12 11 10 9 7 9 8 7 5 5 4 6 8
3 3 3 3 3 3 3 4 4 4 7 5 4 5 2 5 8 14 16 20 24 21 23 21 19 18 19 17 16 16 16 16 15 12 11 12 12 14 13 13 10 8 9 8 8 6 3 4 7
3 3 3 3 1 2 0 3 3 4 2 7 2 3 3 4 8 6 6 14 23 23 20 19 17 19 20 18 18 18 17 17 17 15 13 13 13 14 13 13 13 12 11 9 8 8 5 3 5
3 4 2 4 5 3 6 4 3 1 1 4 2 1 8 13 11 10 9 11 15 21 19 17 17 15 20 20 17 19 19 19 19 18 17 16 17 16 15 15 14 14 12 11 10 10 8 5 4
3 3 2 2 1 1 4 5 5 3 6 4 4 5 6 4 3 4 7 13 21 23 25 23 21 20 18 20 21 22 23 22 22 21 20 19 18 18 18 17 16 15 14 12 11 10 10 7 7
3 4 1 2 1 1 4 7 5 4 4 5 5 6 1 4 8 9 7 15 21 30 28 28 27 24 24 23 24 24 24 24 23 21 20 19 18 18 20 20 19 17 15 15 13 11 11 10 10
1 5 4 6 2 2 2 4 8 7 8 8 7 5 2 5 6 3 5 12 8 9 29 29 27 28 28 26 26 29 27 21 21 20 19 19 18 17 23 26 22 18 16 16 14 12 10 11 11
3 4 8 7 7 5 4 7 7 9 11 10 10 3 3 8 7 2 11 17 21 24 14 29 30 28 26 29 25 26 27 21 20 19 19 21 22 20 16 20 17 15 15 16 16 12 13 11 9
4 5 7 7 11 7 9 8 4 9 7 4 5 5 9 8 8 12 18 20 24 23 23 22 21 26 29 29 29 27 26 25 22 25 24 25 24 22 18 20 19 16 17 17 17 18 17 15 9
4 6 8 11 11 7 4 4 9 14 7 9 7 7 7 3 16 11 14 17 21 22 22 21 18 10 24 29 31 25 21 27 25 24 30 24 27 26 24 20 20 16 19 16 18 18 15 13 10
4 1 3 7 4 1 5 7 12 7 7 10 8 8 8 7 9 16 17 18 18 21 25 21 17 14 11 18 24 20 27 28 25 24 26 28 23 25 28 25 19 19 20 17 19 18 16 11 13
2 3 5 7 5 3 4 7 9 5 5 8 8 9 7 6 8 17 19 18 19 20 24 26 22 20 19 14 11 26 32 34 30 28 28 29 25 25 27 25 20 21 19 19 20 20 18 22 20
6 6 3 6 4 8 8 15 7 10 8 9 9 9 7 7 6 17 21 20 20 20 22 23 26 27 24 19 16 14 22 33 29 30 33 27 27 26 28 30 25 21 21 19 21 21 22 23 20
4 5 8 11 9 11 14 17 9 8 6 9 9 4 8 9 6 20 23 21 21 20 21 21 24 28 32 24 20 17 12 21 38 33 36 38 35 33 33 33 30 26 24 22 23 24 22 16 22
5 9 11 10 8 8 11 20 8 7 8 9 9 9 7 7 8 12 21 19 17 17 20 23 22 25 28 29 25 22 23 20 21 37 38 40 34 15 24 36 28 26 26 26 24 22 18 20 16
5 6 7 11 8 3 8 18 3 5 4 5 10 7 7 8 9 9 12 18 15 15 18 25 22 24 24 30 30 25 23 17 17 32 35 32 20 8 3 4 22 28 29 29 21 22 18 15 11
14 5 6 9 8 7 5 16 11 7 9 4 7 9 8 9 9 9 11 18 19 18 18 21 23 25 25 27 28 25 20 21 21 21 27 28 27 20 12 23 27 30 29 32 28 26 23 18 14
9 4 4 4 7 7 10 6 13 13 15 5 7 9 9 9 9 9 10 18 20 20 23 22 22 26 28 28 27 27 20 23 23 20 23 24 32 28 24 31 34 35 31 31 28 23 20 17 15
9 9 7 4 1 4 3 4 4 4 5 6 8 9 9 9 9 9 17 18 22 21 25 25 24 25 30 29 31 28 25 25 25 13 15 19 24 16 20 20 29 32 29 29 26 22 19 18 16
12 9 5 4 2 7 11 12 11 3 8 9 10 9 11 12 15 18 14 19 25 26 26 27 28 28 28 32 30 33 32 24 22 19 13 17 16 16 8 20 26 28 29 30 27 23 20 21 20
3 3 3 8 11 15 8 7 6 4 6 5 7 5 5 4 3 4 6 19 21 23 28 27 28 31 26 28 31 32 37 23 20 15 1 17 20 21 21 19 19 25 27 28 27 25 24 22 21
5 3 7 5 8 9 5 6 2 8 13 14 13 12 12 13 11 10 12 19 24 29 33 29 29 31 27 24 28 31 34 26 16 12 6 33 29 24 18 8 17 24 26 31 26 26 24 21 19
4 5 7 2 4 5 4 5 3 4 9 12 11 9 7 4 5 8 13 18 22 24 30 28 27 30 22 21 26 29 29 25 10 7 18 31 28 16 14 10 15 14 21 26 27 26 24 23 19
9 7 3 1 2 3 4 4 6 8 7 7 6 7 2 5 5 5 12 19 23 26 25 26 27 27 27 21 25 29 25 18 9 4 11 21 22 31 29 24 25 19 22 29 27 26 25 26 21
2 1 2 2 6 2 4 5 2 4 2 6 7 6 4 3 4 6 12 18 24 24 25 26 25 27 28 20 22 29 19 21 10 5 10 21 26 24 21 25 29 17 24 29 29 29 28 26 21
Wind_Direction
293 314 291 349 53 70 284 267 147 31 48 331 56 77 124 88 58 151 157 163 164 163 168 167 166 162 160 159 162 164 168 164 152 151 153 151 133 120 110 106 99 89 90 88 86 78 74 71 73
10 335 116 67 80 49 287 271 83 80 74 342 349 324 76 94 108 131 147 172 167 162 173 171 174 174 173 168 166 169 167 166 155 154 158 157 148 137 124 114 115 106 107 102 91 83 81 74 82
319 307 79 108 123 190 151 33 48 355 11 14 339 20 88 42 92 130 153 149 164 159 171 175 177 176 175 172 171 170 167 169 162 159 168 173 168 161 146 129 124 120 121 109 102 94 86 80 87
320 9 13 91 229 265 135 129 30 11 352 19 341 50 62 42 94 132 130 144 162 164 167 176 178 179 178 171 171 182 175 174 170 172 171 178 180 177 169 155 137 128 113 113 105 102 92 81 87
250 76 35 336 290 311 80 88 53 355 321 20 46 15 76 73 114 125 142 151 160 169 172 173 187 190 188 187 186 192 187 187 181 185 190 187 193 189 184 176 162 146 141 136 132 117 98 83 79
9 97 61 196 309 130 36 35 67 20 31 336 38 102 65 122 131 143 148 159 169 177 177 181 187 194 194 199 199 202 200 201 201 200 195 196 194 196 195 195 181 165 157 165 163 131 121 103 89
111 79 224 250 272 53 43 10 64 19 29 350 311 92 172 74 115 155 171 172 176 184 181 185 190 200 205 206 209 204 204 199 206 214 218 211 207 198 197 196 194 184 178 187 178 168 155 125 111
95 91 290 305 210 92 159 36 142 75 294 298 334 120 192 222 155 139 122 163 175 179 184 186 193 202 204 206 211 208 210 207 208 212 212 214 208 209 206 205 198 192 191 196 185 178 192 163 132
47 56 306 322 18 348 4 47 337 207 245 305 242 205 178 177 169 169 180 155 157 173 188 194 199 201 214 215 211 214 215 215 218 222 223 222 218 217 220 219 205 200 195 197 193 188 191 197 157
96 105 261 329 136 317 327 29 318 359 310 303 337 13 104 103 130 212 230 211 189 187 188 199 207 205 201 209 212 219 223 223 227 230 231 232 229 223 217 220 219 205 199 202 202 193 190 199 174
207 197 278 264 155 95 324 325 322 348 264 242 263 281 339 18 336 319 289 241 226 209 198 198 203 208 204 201 211 217 219 224 229 230 230 229 230 223 227 223 208 212 204 203 205 200 199 201 204
183 264 272 284 290 175 255 306 311 274 248 262 279 248 335 331 306 289 351 337 341 253 220 209 207 207 209 201 210 220 217 218 222 223 221 222 226 226 238 226 215 213 213 209 211 211 208 217 227
251 272 299 305 298 254 253 259 242 261 265 275 292 229 269 280 278 313 21 33 21 32 5 218 210 211 209 206 213 216 213 219 224 228 225 228 233 231 209 214 216 216 215 206 208 207 210 220 226
292 317 297 290 274 251 235 245 176 262 218 252 207 251 245 264 232 56 40 23 12 12 20 25 225 222 217 211 212 221 217 213 218 223 222 228 221 217 222 218 213 219 214 209 206 211 220 223 223
281 310 307 267 251 227 145 299 237 256 214 214 227 255 264 132 91 82 54 34 16 9 17 17 10 296 231 224 219 221 228 227 229 234 235 224 223 231 230 218 218 221 204 208 204 214 219 211 221
277 61 317 295 87 235 118 256 274 272 151 198 222 257 264 114 115 81 62 45 25 3 360 3 3 7 10 256 250 229 234 243 243 237 233 233 226 233 226 233 227 222 204 211 203 201 188 179 177
294 242 268 327 231 147 173 252 246 241 203 214 230 248 255 133 105 90 75 56 37 16 355 347 359 348 345 342 301 257 250 243 234 246 234 225 227 227 214 222 216 206 217 213 206 186 182 169 161
294 299 285 272 283 306 265 259 256 262 256 248 254 252 133 135 107 85 71 57 45 30 10 358 356 1 348 330 329 304 274 251 247 238 234 230 221 223 230 204 213 212 216 201 196 187 180 173 180
281 299 298 282 289 291 280 274 289 267 282 278 262 201 148 112 107 74 64 51 40 20 3 358 357 350 351 346 333 318 300 259 238 234 233 231 227 246 227 218 208 205 204 198 188 174 177 184 161
298 287 276 284 266 288 304 289 284 279 274 262 241 151 133 98 69 65 62 51 38 12 356 349 350 355 345 349 332 320 310 284 271 236 230 224 242 245 245 224 209 196 189 181 183 180 157 149 150
248 256 277 278 320 234 290 288 322 334 343 43 55 91 74 77 72 55 51 44 33 6 356 358 353 354 352 344 344 333 328 292 265 236 227 223 207 201 295 56 225 191 178 176 175 181 167 149 151
284 264 326 341 353 299 72 295 290 273 275 90 81 66 59 51 46 40 34 28 10 355 343 348 358 356 353 348 340 336 323 306 279 264 232 206 200 210 212 196 230 198 185 182 174 176 180 176 173
283 340 292 283 299 314 295 256 288 297 293 158 80 67 54 45 41 26 17 11 354 347 346 343 346 353 354 345 340 340 327 320 305 283 239 206 213 215 211 199 209 200 183 182 175 170 167 172 168
341 355 315 294 232 273 230 259 339 4 293 74 65 51 51 41 23 9 358 354 344 342 338 346 343 347 351 345 339 332 332 324 320 292 232 222 205 204 199 202 201 198 178 175 176 172 176 179 173
30 14 324 318 339 261 345 322 289 117 59 75 66 42 20 14 2 354 343 343 335 332 334 340 340 343 345 347 341 334 335 327 326 312 261 219 134 145 144 179 218 208 185 172 172 171 166 161 152
309 158 177 281 293 292 310 268 307 95 90 75 55 43 42 17 188 206 291 310 310 320 336 332 339 342 338 346 343 333 334 330 344 331 227 133 134 142 152 191 326 204 190 170 163 151 147 147 139
308 238 239 254 275 281 236 239 88 36 20 19 29 25 14 3 351 325 318 340 339 339 324 327 340 339 334 344 344 334 331 332 346 349 155 131 127 130 136 176 349 195 181 158 154 148 142 138 134
237 307 317 302 304 258 265 273 201 29 360 358 358 332 281 249 285 332 332 333 322 316 317 330 338 338 335 346 342 341 328 333 353 357 161 148 137 130 135 116 131 163 190 151 150 142 134 130 131
312 304 281 82 267 291 302 264 125 139 198 230 252 256 321 28 24 323 322 318 312 309 316 338 340 339 339 342 344 343 335 336 329 303 180 170 153 131 118 126 150 158 186 148 142 138 134 132 137
246 347 31 142 285 257 292 285 276 109 305 316 350 321 30 23 356 316 312 318 315 320 328 344 349 348 342 346 345 349 334 343 327 314 218 194 174 152 138 138 152 178 153 141 141 138 136 135 140